Погода в Катарагаме

Шри-Ланка     6°30′02″N   81°18′59″E
темп.,
°C
ветер,
м/с
пор.,
м/с
влажн.,
%
обл.,
%
осадки,
мм/ч
давл.,
гПа
погр.,
м
12 августа, пт
пт1223:30+27зюз5968100 0.0 1009467
02:30+26зюз5107399 0.0 1007455
05:30+26зюз6127512 0.0 1007485
08:30+31з8953100 0.0 1008917
11:30+35зюз973794 0.0 10071917
14:30+36зюз10936100 0.0 10041817
17:30+31зюз8115294 0.3 1006888
20:30+27зюз61169100 0.3 1008442
13 августа, сб
сб1323:30+26зюз51168100 0.3 1008397
02:30+26зюз4970100 0.0 1006394
05:30+25юз497664 0.0 1007351
08:30+30зюз685640 0.0 1008863
11:30+35зюз653890 0.0 10071838
14:30+36зюз753893 0.0 10042002
17:30+31зюз5854100 0.3 1005761
20:30+26зюз4873100 1.0 1008335
14 августа, вс
вс1423:30+25зюз5978100 1.0 1008320
02:30+25зюз4978100 0.0 1006355
05:30+24юз4981100 0.0 1007353
08:30+29зюз6857100 0.0 1008825
11:30+34зюз664188 0.0 10081585
14:30+35зюз653993 0.1 10052068
17:30+31зюз6751100 0.2 1006787
20:30+26юз5970100 0.8 1009436
15 августа, пн
пн1523:30+25юз3879100 1.2 1009288
02:30+24юз4881100 0.0 1007329
05:30+24юз498270 0.0 1008353
08:30+29зюз565688 0.0 1009855
11:30+35юз4339100 0.0 10081871
14:30+35ююз6539100 0.0 10052100
17:30+32юз775091 0.0 10061206
20:30+26юз697341 0.0 1009446
16 августа, вт
вт1623:30+25юз4883100 0.6 1010354
02:30+24зюз388752 0.3 1008310
05:30+23юз37915 0.6 1009243
08:30+28зюз466519 0.2 1010753
11:30+34зюз434243 0.2 10091864
14:30+32ююз664969 0.1 10061351
17:30+31ююз665239 0.1 10061268
20:30+25ююз488018 1.7 1009309